Location: Aufkirchen
(47.9603°N, 11.3653°E)
Time: 16:08:54
(UTC+01:00)

Envisat - Visible Passes

Search period start: 27 October 2020 00:00
Search period end: 06 November 2020 00:00
Orbit: 764 x 766 km, 98.1° (Epoch: 27 October)

Date Brightness Start Highest point End Pass type
(mag) Time Alt. Az. Time Alt. Az. Time Alt. Az.
27 Oct 6.5 04:43:51 10° ENE 04:45:17 11° E 04:46:42 10° ESE visible
27 Oct 3.2 06:20:02 10° NNE 06:25:08 79° ESE 06:30:13 10° S visible
27 Oct 3.8 17:38:08 10° S 17:43:07 57° W 17:48:09 10° NNW visible
28 Oct 4.7 05:43:28 10° NNE 05:48:13 38° E 05:52:56 10° SSE visible
28 Oct 6.1 18:42:35 10° SW 18:45:51 17° W 18:49:08 10° NW visible
29 Oct 5.9 05:07:29 10° NE 05:11:05 19° E 05:14:38 10° SE visible
29 Oct 4.9 18:04:05 10° SSW 18:08:41 34° W 18:13:19 10° NNW visible
30 Oct 3.6 06:08:41 10° NNE 06:13:45 64° ESE 06:18:47 10° S visible
30 Oct 3.4 17:26:39 10° S 17:31:43 71° WSW 17:36:49 10° NNW visible
31 Oct 5.1 05:32:15 10° NNE 05:36:46 31° E 05:41:14 10° SSE visible
31 Oct 5.8 18:30:33 10° SW 18:34:21 21° W 18:38:10 10° NW visible
01 Nov 6.2 04:56:37 10° NE 04:59:34 15° E 05:02:30 10° ESE visible
01 Nov 4.4 17:52:26 10° S 17:57:14 42° W 18:02:04 10° NNW visible
02 Nov 4.0 05:57:22 10° NNE 06:02:21 51° E 06:07:16 10° S visible
02 Nov 6.4 18:58:00 10° WSW 19:00:07 12° W 19:02:15 10° WNW visible
03 Nov 5.4 05:21:06 10° NE 05:25:17 25° E 05:29:27 10° SSE visible
03 Nov 5.4 18:18:39 10° SSW 18:22:51 26° W 18:27:06 10° NW visible
04 Nov 6.4 04:46:03 10° ENE 04:48:02 12° E 04:50:00 10° ESE visible
04 Nov 3.1 06:22:42 10° NNE 06:27:50 85° ESE 06:32:54 10° SSW visible
04 Nov 4.0 17:40:52 10° S 17:45:49 53° W 17:50:48 10° NNW visible
05 Nov 4.5 05:46:06 10° NNE 05:50:55 41° E 05:55:42 10° SSE visible
05 Nov 6.1 18:45:34 10° SW 18:48:35 16° W 18:51:37 10° NW visible
